This is the latest recevied weather packets stored in our database for station/object HUGOCO. If no packets are shown the sender has not sent any weather packets the latest 1 day(s).
| Time | Temp. | Humidity | Pressure | Rain* | Wind** | Luminosity | Snow |
|---|---|---|---|---|---|---|---|
| 1778043359 | 0° C | 94% | 1019.9 hPa | 0 mm | 2.24 m/s, 359° | - | - |
| 1778042459 | 0° C | 94% | 1019.5 hPa | 0.25 mm | 1.79 m/s, 359° | - | - |
| 1778039759 | 0.56° C | 94% | 1018.9 hPa | 0.76 mm | 2.68 m/s, 359° | - | - |
| 1778039105 | 0.56° C | 94% | 1018.6 hPa | 0.51 mm | 3.13 m/s, 359° | - | - |
| 1778038860 | 0.56° C | 94% | 1018.6 hPa | 0.51 mm | 3.13 m/s, 359° | - | - |
| 1778037960 | 0.56° C | 94% | 1018.1 hPa | 0.51 mm | 3.13 m/s, 359° | - | - |
| 1778036159 | 1.11° C | 94% | 1017.6 hPa | 0.25 mm | 4.47 m/s, 359° | - | - |
| 1778035260 | 1.11° C | 94% | 1017.5 hPa | 0.51 mm | 4.02 m/s, 359° | - | - |
| 1778034359 | 1.67° C | 94% | 1016.9 hPa | 0.76 mm | 4.47 m/s, 359° | - | - |
| 1778033460 | 1.67° C | 94% | 1016.7 hPa | 0.76 mm | 4.02 m/s, 359° | - | - |
| 1778032559 | 1.67° C | 94% | 1016.3 hPa | 1.02 mm | 4.02 m/s, 359° | - | - |
| 1778032176 | 1.67° C | 94% | 1016.3 hPa | 1.02 mm | 4.02 m/s, 359° | - | - |
| 1778031663 | 1.67° C | 94% | 1016.3 hPa | 1.02 mm | 4.02 m/s, 359° | - | - |
| 1778030760 | 1.67° C | 94% | 1016.2 hPa | 0.76 mm | 2.68 m/s, 359° | - | - |
| 1778029860 | 2.22° C | 94% | 1016.1 hPa | 0.51 mm | 2.68 m/s, 359° | - | - |
| 1778028060 | 2.22° C | 94% | 1015.3 hPa | 0.25 mm | 3.13 m/s, 359° | - | - |
| 1778026259 | 2.22° C | 94% | 1014.9 hPa | 0.51 mm | 3.13 m/s, 359° | - | - |
| 1778025359 | 2.22° C | 93% | 1014.9 hPa | 0.25 mm | 3.58 m/s, 359° | - | - |
| 1778024461 | 2.22° C | 93% | 1014.5 hPa | 0.25 mm | 4.92 m/s, 359° | - | - |
| 1778023565 | 2.78° C | 93% | 1014 hPa | 0 mm | 5.81 m/s, 359° | - | - |
| 1778022660 | 2.78° C | 93% | 1013.8 hPa | 0 mm | 4.92 m/s, 359° | - | - |
| 1778021760 | 2.78° C | 92% | 1013.7 hPa | 0 mm | 4.47 m/s, 359° | - | - |
| 1778020860 | 2.78° C | 93% | 1013.6 hPa | 0.25 mm | 4.92 m/s, 359° | - | - |
| 1778019960 | 2.78° C | 93% | 1013.4 hPa | 0.25 mm | 3.58 m/s, 359° | - | - |
| 1778019060 | 2.78° C | 93% | 1013.6 hPa | 0.25 mm | 3.58 m/s, 359° | - | - |
* Rain latest hour (hover to see other rain measurements)
** Current wind speed in m/s (hover to see current wind gust speed)